Regional Weather Roundup
Issued by NWS

Home | Current Version | Previous Version | Text Only | Print | Product List | Glossary Off
Versions: 1 2 3 4 5 6 7 8 9 10 11 12 13 14 15 16 17 18 19 20 21 22 23 24 25 26 27 28 29 30 31 32 33 34 35 36 37 38 39 40 41 42 43 44 45 46 47 48 49 50

000
ASUS43 KLSX 190807
RWRMO

WEATHER SUMMARY FOR MISSOURI
NATIONAL WEATHER SERVICE SPRINGFIELD MO
200 AM CST MON FEB 19 2018

NOTE: "FAIR" INDICATES FEW OR NO CLOUDS BELOW 12,000 FEET WITH NO
       SIGNIFICANT WEATHER AND/OR OBSTRUCTIONS TO VISIBILITY.
       CURRENT SKY AND/OR WEATHER CONDITIONS ARE NOT AVAILABLE FOR
       CHILLICOTHE AND FARMINGTON.

MOZ001>031-035>038-043-044-053-054-190900-
...NORTHERN AND WESTERN MISSOURI...

CITY           SKY/WX    TMP DP  RH WIND       PRES   REMARKS
KANSAS CTY INT DRIZZLE   54  52  93 S15G23    29.64F FOG
KANSAS C DTWN  CLOUDY    57  52  83 S12       29.66F
LEE`S SUMMIT   CLOUDY    55  54  96 S24G33    29.67F
ST JOSEPH      CLOUDY    53  52  96 S13       29.62F
CHILLICOTHE      N/A     52  44  74 SE8       29.71F
KIRKSVILLE     CLOUDY    48  46  93 S10       29.76S

$$
MOZ066>068-077>081-088>096-101>105-190900-
...SOUTHWEST MISSOURI...

CITY           SKY/WX    TMP DP  RH WIND       PRES   REMARKS
SPRINGFIELD    CLOUDY    52  50  93 S14       29.83S
JOPLIN         CLOUDY    58  58 100 S25G33    29.77F

$$
MOZ032>034-039>042-045>050-055>058-069>072-190900-
...CENTRAL MISSOURI...

CITY           SKY/WX    TMP DP  RH WIND       PRES   REMARKS
COLUMBIA       CLOUDY    53  50  89 S14       29.78F
JEFFERSON CITY CLOUDY    55  50  83 S12G24    29.80F
ROLLA          CLOUDY    53  51  93 S15       29.85F
SEDALIA        CLOUDY    56  53  90 S16       29.74F
WHITEMAN AFB   HVY RAIN  53  51  93 S10       29.68F
WARRENSBURG    CLOUDY    55  54  94 S14G21    29.70F
OSAGE BEACH    CLOUDY    54  50  86 SE7       29.82F

$$
MOZ051-052-059>065-190900-
...EAST CENTRAL MISSOURI...

CITY           SKY/WX    TMP DP  RH WIND       PRES   REMARKS
ST LOUIS INTL  CLOUDY    52  47  83 S12       29.87F
SPIRIT OF STL  CLOUDY    55  50  83 CALM      29.86F
ST CHARLES     CLOUDY    52  46  80 S8        29.87F

$$
MOZ072>076-082>087-097>100-106>115-190900-
...SOUTH CENTRAL AND SOUTHEAST MISSOURI...

CITY           SKY/WX    TMP DP  RH WIND       PRES   REMARKS
CAPE GIRARDEAU CLOUDY    53  52  96 S14G21    30.02S FOG
FARMINGTON     CLOUDY    50  49  96 S10       29.94F FOG
POPLAR BLUFF   FOG       53  53 100 S9        30.01S VSB 1
WEST PLAINS    FOG       50  50 100 S10       29.94S VSB 1/2

$$


USA.gov is the U.S. government's official web portal to all federal, state and local government web resources and services.